Home > Weather > Wals-Siezenheim > Past weeks

Flag for Austria Past Weather in Wals-Siezenheim, Salzburg, Austria — Yesterday and Last 2 Weeks

Now
77 °F

Partly sunny.


Feels Like: 79 °F
Forecast: 63 / 79 °F
Wind: 6 mph from Northwest

Location: Salzburg-Flughafen

Current Time: Jul 23, 2016 at 1:16:34 PM

Latest Report: Jul 23, 2016 at 12:50 PM


Visibility: N/A

Pressure: 30.04 "Hg

Humidity: 61%

Dew Point: 63 °F

Location of Wals-SiezenheimLocation

Past Weather in Wals-Siezenheim — Graph

°F

Wals-Siezenheim Temperature Yesterday

Maximum temperature yesterday: 81 °F (at 3:20 PM)
Minimum temperature yesterday: 63 °F (at 3:50 AM)
Average temperature yesterday: 70 °F

High & Low Weather Summary for the Past Weeks

 TemperatureHumidityPressure
High90 °F (Jul 11, 2:20 PM)100% (Jul 12, 6:20 PM)30.33 "Hg (Jul 12, 6:20 PM)
Low50 °F (Jul 14, 3:20 AM)26% (Jul 8, 7:20 PM)29.86 "Hg (Jul 11, 6:20 PM)
Average67 °F76%30.09 "Hg
* Reported Jul 8 11:20 AM — Jul 23 11:20 AM, Wals-Siezenheim, Weather by CustomWeather, © 2016

Note: Actual official high and low records may vary slightly from our data, if they occured in-between our weather recording intervals... More about our weather records

Advertising

Wals-Siezenheim Weather History for the Previous 24 Hours

Scroll right to see more
 ConditionsComfort  
Time TempWeatherWind HumidityBarometerVisibility
11:20 AM
Sat, Jul 23
77 °FPassing clouds.2 mph61%30.04 "HgN/A
10:50 AM75 °FPassing clouds.2 mph65%30.04 "HgN/A
10:20 AM73 °FPassing clouds.5 mph69%30.04 "HgN/A
9:50 AM73 °FPassing clouds.6 mph74%30.04 "HgN/A
9:20 AM72 °FPassing clouds.7 mph73%30.04 "HgN/A
8:50 AM68 °FScattered clouds.8 mph83%30.07 "HgN/A
8:20 AM66 °FScattered clouds.6 mph88%30.07 "HgN/A
7:50 AM64 °FBroken clouds.7 mph88%30.07 "HgN/A
7:20 AM64 °FBroken clouds.7 mph88%30.07 "HgN/A
6:50 AM64 °FBroken clouds.8 mph88%30.07 "HgN/A
6:20 AM64 °FSprinkles. Passing clouds.7 mph88%30.07 "HgN/A
5:50 AM64 °FPassing clouds.6 mph94%30.04 "HgN/A
5:20 AM63 °FSprinkles. Passing clouds.5 mph94%30.07 "HgN/A
4:50 AM63 °FPassing clouds.2 mph100%30.04 "HgN/A
4:20 AM63 °FPassing clouds.1 mph94%30.04 "HgN/A
3:50 AM64 °FPassing clouds.1 mph94%30.04 "HgN/A
3:20 AM64 °FPassing clouds.6 mph88%30.04 "HgN/A
2:50 AM64 °FPassing clouds.3 mph88%30.04 "HgN/A
2:20 AM64 °FPassing clouds.8 mph88%30.04 "HgN/A
1:50 AM64 °FPassing clouds.7 mph94%30.04 "HgN/A
1:20 AM64 °FPassing clouds.7 mph94%30.04 "HgN/A
12:50 AM64 °FPassing clouds.8 mph94%30.04 "HgN/A
12:20 AM66 °FPassing clouds.8 mph88%30.04 "HgN/A
11:50 PM
Fri, Jul 22
66 °FPassing clouds.6 mph88%30.01 "HgN/A
11:20 PM66 °FPassing clouds.7 mph88%30.04 "HgN/A
10:50 PM66 °FPassing clouds.6 mph94%30.04 "HgN/A
10:20 PM68 °FPassing clouds.8 mph88%30.04 "HgN/A
9:50 PM68 °FPartly sunny.7 mph88%30.04 "HgN/A
9:20 PM68 °FBroken clouds.6 mph88%30.01 "HgN/A
8:50 PM68 °FBroken clouds.8 mph88%30.01 "HgN/A
8:20 PM70 °FPartly sunny.10 mph88%30.01 "HgN/A
7:50 PM70 °FPartly sunny.7 mph83%30.01 "HgN/A
7:20 PM72 °FLight rain. Broken clouds.6 mph78%30.01 "HgN/A
6:50 PM75 °FThunderstorms. Broken clouds.7 mph69%30.01 "HgN/A
6:20 PM77 °FThundershowers. Broken clouds.5 mph65%29.98 "HgN/A
5:50 PM79 °FBroken clouds.5 mph54%29.95 "HgN/A
5:20 PM79 °FBroken clouds.8 mph58%29.95 "HgN/A
4:50 PM81 °FScattered clouds.7 mph51%29.95 "HgN/A
4:20 PM81 °FPassing clouds.7 mph51%29.95 "HgN/A
3:50 PM81 °FPassing clouds.7 mph51%29.95 "HgN/A
3:20 PM81 °FPassing clouds.7 mph58%29.98 "HgN/A
2:50 PM79 °FPassing clouds.8 mph61%29.98 "HgN/A
2:20 PM77 °FPassing clouds.5 mph61%29.98 "HgN/A
1:50 PM77 °FPassing clouds.7 mph61%30.01 "HgN/A
1:20 PM77 °FScattered clouds.5 mph61%30.01 "HgN/A
Weather by CustomWeather, © 2016

See weather overviewHow to use our weather pages